Dewpoint
-9 -9 -9 -8 -8 -9 -8 -8 -8 -8 -8 -9 -9 -9 -8 -7 -5 -3 -0 0 0 1 8 11 12 14 14 14 13 14 19 18 15 11 8 6 6 5 5 5 6 10 13 13 13
-11 -10 -10 -9 -9 -9 -9 -9 -8 -8 -8 -8 -9 -8 -8 -3 2 3 4 3 7 8 11 13 14 14 14 14 11 15 17 16 11 8 7 6 6 6 6 7 11 12 13 13 13
-12 -12 -11 -10 -10 -9 -9 -9 -9 -8 -8 -8 -8 -8 -6 4 5 7 4 10 10 9 14 14 13 13 16 16 15 14 14 11 7 6 7 7 7 6 7 7 11 12 13 13 12
-13 -13 -12 -11 -11 -10 -10 -9 -9 -9 -8 -8 -8 -8 -4 2 10 6 10 10 10 13 13 13 11 15 15 14 13 16 13 12 6 6 8 9 7 6 7 7 11 12 12 12 12
-13 -13 -13 -12 -12 -11 -10 -10 -10 -9 -8 -8 -8 -7 -7 5 8 10 11 11 12 13 14 13 12 14 16 13 11 13 15 11 6 6 7 6 9 9 8 7 8 11 12 12 12
-12 -12 -12 -12 -12 -11 -11 -10 -10 -10 -9 -8 -8 -7 -8 7 9 11 10 10 12 13 14 14 12 14 15 16 15 12 13 8 6 6 8 7 9 9 8 7 7 9 11 11 12
-16 -15 -13 -12 -12 -12 -11 -10 -10 -10 -10 -9 -9 -8 -7 1 3 -0 8 8 9 12 11 11 10 13 13 13 11 10 9 7 7 7 9 8 11 9 9 9 8 9 10 11 12
-17 -17 -17 -15 -12 -12 -12 -11 -10 -11 -10 -10 -9 -8 -4 2 -1 5 6 6 7 8 10 8 8 7 8 9 9 10 9 11 8 6 8 8 11 8 10 10 9 8 9 10 10
-18 -17 -18 -18 -15 -12 -11 -11 -10 -10 -11 -11 -8 4 3 0 -3 2 6 4 6 7 7 6 6 6 8 13 14 11 12 11 8 5 7 7 10 8 9 10 10 9 9 9 9
-20 -18 -18 -18 -18 -14 -11 -12 -10 -11 -11 -11 -10 -1 1 0 -0 0 5 5 4 4 5 5 5 7 14 15 15 12 11 9 9 6 5 5 7 8 7 10 11 11 10 9 8
-21 -20 -19 -18 -19 -16 -11 -11 -1 -6 -10 -6 -2 -1 0 -1 -1 1 3 5 5 4 6 6 7 10 12 11 11 11 6 5 5 2 2 3 3 8 7 7 11 11 11 10 9
-18 -21 -19 -18 -19 -18 -12 -11 -3 -5 -5 -5 -4 -5 -3 -1 0 1 2 3 4 6 5 7 9 8 9 9 9 8 6 5 5 3 3 3 4 2 6 6 9 11 11 11 10
-13 -19 -22 -18 -19 -11 -5 -7 -5 -6 -5 -6 -6 -4 -4 -3 -1 0 1 2 3 6 7 8 7 5 7 8 7 6 6 5 4 2 1 1 4 4 6 7 6 6 11 11 11
-9 -14 -22 -19 -13 -2 -5 -5 -6 -6 -2 -6 -10 -8 -4 -5 -4 -3 -1 1 2 4 4 6 3 3 5 7 5 7 4 4 4 5 6 2 6 6 7 9 6 3 7 11 11
-8 -11 -17 -21 -13 -6 -5 -3 -5 -4 5 -6 -12 -11 -6 -5 -5 -4 -4 1 2 3 3 4 3 2 3 3 3 5 3 3 3 4 3 2 4 7 7 9 8 5 6 9 11
-7 -9 -13 -22 -18 -12 -8 -5 -4 -0 3 -8 -10 -12 -12 -8 -7 -6 -5 -2 -0 1 1 2 0 1 1 0 1 2 3 2 2 3 5 3 4 9 8 6 7 6 4 4 10
-7 -8 -11 -17 -15 -4 -5 -4 1 2 -4 -6 -8 -10 -11 -12 -9 -7 -6 -1 1 3 5 3 1 -1 -1 1 0 1 2 7 6 6 7 6 7 7 6 3 2 1 3 3 8
-7 -7 -11 -12 -20 -4 -6 -0 4 1 -2 -7 -7 -8 -9 -13 -12 -11 -9 -5 -2 -1 1 3 4 0 -1 0 1 2 2 5 8 6 3 -1 6 6 5 2 -1 2 2 2 1
-8 -9 -7 -15 -23 -8 -4 3 3 0 -6 -7 -7 -6 -6 -8 -10 -11 -11 -10 -4 -2 0 1 2 -2 -3 -4 -2 -0 2 -0 1 -0 -0 -2 -3 -0 5 4 3 5 3 2 3
-9 -12 -11 -3 -10 -15 -1 1 -3 -7 -8 -6 -3 -5 -3 -5 -5 -7 -7 -11 -12 -11 -9 -2 2 -1 -3 -5 -6 -2 -2 -0 -0 1 3 -1 2 2 4 2 2 4 5 6 6
-7 1 -4 -3 -11 -7 -1 -4 -8 -11 -11 -6 -4 -3 -4 -2 -3 -3 -4 -6 -10 -12 -12 -11 -8 -5 -4 -4 -4 -4 -1 -4 -3 -2 -0 -0 -1 6 5 4 1 0 8 7 7
-8 4 -0 -4 -4 -5 -5 -7 -11 -11 -12 -9 -7 -5 -4 -4 -2 -3 -2 -4 -7 -5 -3 -7 -7 -4 -5 -6 -7 -7 -6 -4 0 2 0 -0 -1 9 8 1 1 4 7 8 8
-2 3 0 -3 0 -4 -8 -10 -11 -11 -12 -11 -7 -6 -7 -6 -3 -3 -4 -6 -6 -5 -0 -2 1 2 2 -5 -7 -4 -2 -2 -1 -4 -2 2 4 9 9 10 10 8 6 8 10
3 6 -0 -2 -3 -4 -6 -5 -6 -13 -13 -12 -6 -8 -6 -5 -5 -3 -4 -8 -8 -7 -4 -4 -2 0 2 1 -1 -0 -1 -1 2 4 4 6 8 11 11 11 13 16 15 14 15
5 5 2 5 1 -3 -7 -6 -6 -6 -11 -11 -8 -8 -7 -5 -2 -2 -3 -6 -8 -9 -5 -5 -1 -1 -1 -2 -2 -2 -2 -2 2 3 6 6 6 8 10 11 11 15 13 14 15
5 3 2 3 1 1 -3 -4 -7 -8 -6 -6 -4 -4 -3 -1 0 4 3 2 1 -0 -1 -5 -1 1 2 -1 -2 -1 -2 -2 2 3 5 5 5 6 9 8 10 11 12 11 8
4 3 2 3 1 -1 -0 1 -3 -5 -4 -6 -3 -1 1 2 1 1 1 0 -0 1 1 -0 4 7 7 6 4 5 3 4 6 6 6 8 9 11 11 10 12 9 12 14 9
Wind_Speed
7 8 8 8 8 8 8 8 8 8 9 9 9 10 11 12 11 11 9 4 8 7 2 3 2 5 8 6 6 13 2 8 9 3 7 22 13 16 18 16 10 9 32 35 33
7 7 8 8 8 8 8 8 8 9 9 9 9 10 12 12 10 9 7 6 8 6 6 1 12 11 5 2 7 5 4 9 9 4 13 20 21 22 17 20 22 32 33 37 36
8 8 8 8 9 9 9 8 8 9 9 9 10 10 11 11 10 4 7 5 6 9 3 7 10 10 22 21 3 3 6 4 3 17 18 12 15 18 24 11 29 36 38 36 36
8 9 9 9 9 9 9 9 9 9 9 9 10 10 12 10 4 1 4 6 11 11 4 10 14 14 3 8 7 4 17 21 4 2 15 7 14 15 22 20 31 36 35 35 34
9 10 10 10 10 10 9 9 9 9 9 9 10 10 13 7 6 5 7 9 13 9 7 8 9 13 6 11 14 17 23 30 13 4 12 7 5 4 26 27 28 29 31 32 32
10 10 11 10 10 10 10 10 9 9 9 9 9 11 9 6 2 7 5 4 8 7 6 17 12 20 17 16 18 20 42 17 18 13 14 12 7 9 27 29 27 27 29 31 31
11 11 11 11 11 11 11 10 10 9 10 9 9 11 11 12 9 7 13 9 7 5 9 7 4 17 14 14 20 35 7 3 6 16 6 16 5 4 33 31 30 28 26 28 30
12 12 12 12 12 12 11 11 10 9 10 9 9 11 10 4 4 8 7 10 11 11 12 15 10 15 15 19 12 5 5 5 9 7 17 15 5 9 35 35 32 31 30 29 28
13 13 12 12 12 11 11 11 10 9 9 9 6 6 12 7 14 13 14 10 14 13 15 15 14 14 14 4 5 3 4 5 4 8 5 7 5 10 31 35 31 33 33 32 30
13 13 12 12 12 11 10 10 9 9 9 10 10 8 15 15 14 12 15 12 14 14 16 17 16 5 3 3 5 6 3 6 4 5 4 4 5 15 28 33 33 34 35 34 33
12 12 12 11 12 11 8 8 6 5 11 13 10 19 14 6 16 13 14 13 12 16 8 20 5 5 9 10 15 18 5 6 8 6 3 7 7 10 24 23 29 33 35 38 36
13 12 11 10 10 10 9 5 9 12 11 20 25 29 31 17 7 11 13 13 12 8 13 9 9 11 10 12 10 11 10 9 6 7 4 8 9 10 14 14 31 34 35 37 37
15 13 11 9 7 4 7 9 9 10 9 17 25 27 28 13 13 18 18 17 11 9 13 9 14 13 10 7 7 7 7 5 3 8 7 7 10 2 10 8 39 20 40 42 44
16 13 11 7 5 5 8 9 6 10 4 7 12 24 27 16 18 22 19 16 8 12 15 10 14 15 10 7 4 7 10 8 7 6 4 4 10 2 0 19 17 28 19 40 42
16 14 11 8 6 4 6 2 10 5 3 8 11 8 23 24 5 17 18 20 10 12 7 11 12 12 10 8 6 7 13 7 7 7 8 10 3 2 2 3 11 17 32 36 47
16 14 10 11 12 6 9 8 9 1 7 5 7 6 8 22 25 26 18 19 14 11 14 13 25 10 8 8 5 6 8 7 7 4 5 18 7 4 2 9 9 24 27 30 42
16 15 12 12 8 4 2 6 1 4 2 8 7 10 8 8 11 9 8 10 6 3 7 11 14 13 18 9 6 5 7 5 5 4 7 6 3 6 16 14 10 4 22 20 37
16 17 14 13 14 9 2 2 5 10 11 7 10 13 10 12 13 15 12 9 10 11 7 6 9 14 14 11 11 8 8 5 7 4 8 9 5 7 9 21 18 18 22 17 11
16 15 12 7 15 11 3 4 6 7 14 9 3 4 9 11 11 13 14 11 9 12 11 7 13 17 17 11 16 11 6 10 4 6 5 6 11 6 2 7 8 15 17 17 12
17 13 15 2 9 14 3 6 7 11 18 9 6 6 6 8 8 11 12 14 16 16 11 9 10 11 17 10 8 9 5 2 4 4 7 7 8 6 6 4 5 6 11 15 12
13 5 10 19 10 8 4 7 9 20 23 4 7 10 12 10 7 6 10 10 12 18 17 11 6 9 6 6 7 6 3 3 6 5 5 4 6 6 12 10 10 7 19 20 13
5 3 15 16 7 6 6 6 9 22 31 9 1 7 9 9 7 8 9 6 22 11 3 3 3 6 11 9 7 8 9 7 5 8 5 4 6 12 14 5 7 6 20 12 9
10 8 12 17 4 8 12 17 25 19 17 11 5 5 7 8 7 7 10 17 21 6 3 6 4 5 10 7 7 4 5 4 5 4 5 3 3 15 20 19 30 7 17 12 9
5 3 10 17 20 10 9 10 13 25 20 11 7 11 9 7 7 6 8 12 23 13 2 4 2 4 5 9 6 8 11 7 2 2 1 4 1 8 12 15 24 34 28 31 28
3 4 9 2 6 10 10 11 16 14 14 8 2 5 9 7 8 8 9 10 18 18 4 4 5 7 9 11 17 11 14 10 6 6 7 5 4 4 6 10 15 24 28 29 22
8 8 12 16 19 13 9 9 15 16 10 6 8 8 10 6 4 5 6 6 5 10 8 5 6 8 7 10 13 18 12 11 9 8 4 4 3 2 10 17 19 15 12 10 6
10 12 8 13 10 8 7 9 11 10 16 16 7 4 4 7 14 17 20 20 10 6 8 6 3 4 3 8 9 6 8 5 9 5 2 1 1 1 3 8 11 5 6 10 18
Wind_Direction
340 333 328 327 326 326 327 327 328 331 330 331 333 329 317 308 293 271 253 288 289 279 292 181 317 327 261 239 141 112 144 277 263 76 125 106 110 122 142 116 134 174 151 153 152
334 328 324 324 324 322 322 323 324 326 327 329 332 323 323 323 313 263 225 261 271 234 172 102 331 283 278 97 115 144 202 217 233 168 132 139 144 156 128 110 88 122 139 150 156
333 327 323 322 319 318 321 319 320 320 321 327 328 325 328 325 313 259 232 267 183 158 172 351 333 6 32 330 41 240 224 292 6 124 122 121 159 165 129 132 132 136 145 154 162
331 326 323 319 318 317 317 315 314 313 315 322 322 329 323 323 16 6 151 149 147 148 135 40 65 68 87 259 144 290 274 263 129 45 115 35 101 112 118 143 144 147 152 160 167
331 328 323 319 317 312 310 306 305 305 305 314 319 323 331 327 271 155 133 146 160 175 145 112 31 90 191 232 279 266 264 263 140 132 111 48 334 349 115 132 142 151 156 167 174
331 326 322 318 312 308 304 300 301 297 298 306 313 317 325 277 219 165 144 165 206 250 205 200 242 169 251 239 209 224 234 231 164 167 138 146 249 113 129 132 140 155 163 175 182
328 325 322 318 312 306 300 297 296 292 292 297 306 312 294 254 239 247 247 277 233 233 285 241 320 162 245 261 242 246 303 338 216 172 142 148 331 167 140 141 148 161 173 182 188
327 325 322 319 313 306 301 295 289 283 283 290 304 312 277 295 203 257 240 229 266 276 272 282 282 291 270 271 323 317 217 187 244 182 155 162 212 154 152 150 158 169 176 187 194
326 323 322 320 313 306 302 294 286 276 276 278 292 314 273 224 215 224 240 230 240 259 265 273 279 267 294 47 353 278 261 279 184 175 169 183 173 182 166 159 167 173 181 186 192
322 318 318 318 314 308 302 294 281 273 266 272 251 294 250 232 231 210 220 229 256 273 265 254 255 217 343 102 241 251 214 267 227 210 195 238 223 182 189 169 175 175 181 187 192
322 315 312 312 313 310 298 294 324 271 236 218 229 217 286 213 250 204 208 220 246 272 275 279 239 221 221 220 247 271 263 263 168 137 154 276 300 221 195 189 175 179 180 187 194
329 316 306 304 307 307 294 259 350 328 299 279 261 254 268 261 194 219 212 210 230 245 262 275 251 247 212 217 251 284 300 303 253 154 143 256 252 256 171 198 183 184 184 186 188
332 323 308 298 299 302 312 273 338 331 291 279 246 245 244 232 229 227 203 214 237 252 256 256 267 285 188 243 297 270 262 300 0 333 335 325 318 290 97 124 281 195 190 185 187
333 327 312 293 288 266 294 3 333 305 297 261 206 234 235 233 244 242 218 200 220 246 271 269 282 296 266 240 214 282 295 339 353 23 298 341 300 4 294 181 254 249 203 185 187
329 325 314 280 253 238 348 18 318 296 296 162 180 208 202 218 88 208 230 202 225 252 248 265 277 291 293 275 311 287 302 7 353 340 321 290 296 226 56 277 267 248 236 199 189
322 317 305 279 251 242 329 340 312 301 245 148 135 168 177 211 236 260 219 229 226 239 273 276 293 296 286 322 335 306 310 358 323 280 294 273 230 243 78 232 232 244 187 194 182
314 304 286 261 241 219 264 312 290 232 275 150 171 165 197 216 224 241 249 215 199 247 273 281 270 275 277 298 283 297 348 333 324 317 242 280 60 217 205 230 217 207 133 124 178
310 296 279 255 218 207 359 311 250 276 268 188 156 164 176 203 212 210 233 244 205 216 260 254 277 250 247 222 221 213 190 180 262 279 291 307 263 265 200 211 222 161 131 136 151
315 298 273 242 208 192 216 214 222 218 355 0 144 209 208 203 201 192 204 228 226 209 219 237 273 286 287 296 202 240 224 225 278 291 307 267 293 334 251 215 239 135 139 155 154
320 302 267 179 197 184 208 252 265 317 322 355 348 330 328 289 191 171 185 212 228 233 220 232 250 255 273 307 302 178 195 334 344 314 285 310 307 252 191 173 106 116 202 151 145
329 314 125 171 145 194 219 239 283 279 275 283 304 319 324 329 349 246 204 247 228 222 220 228 228 272 244 266 252 313 286 212 174 169 207 264 278 187 197 210 187 154 126 146 158
327 270 180 165 179 213 234 247 264 283 291 289 125 287 293 319 328 340 334 349 356 343 8 242 211 249 234 251 268 245 260 209 162 264 239 213 260 344 342 212 14 53 143 149 166
330 274 193 183 219 228 251 244 245 268 277 282 231 217 270 296 321 333 327 326 333 329 59 352 347 360 342 331 291 329 338 331 318 222 236 198 329 354 19 15 11 99 150 134 100
315 279 186 207 241 261 276 282 276 238 255 282 358 348 328 321 312 311 316 309 310 328 40 26 296 203 232 252 290 311 308 300 83 64 291 178 252 5 7 18 12 21 37 51 53
249 286 12 289 251 237 248 278 296 299 249 207 227 285 279 300 313 301 296 295 295 297 220 168 239 275 289 294 298 293 297 309 271 220 143 294 33 4 30 61 43 44 29 41 59
338 357 328 298 305 316 206 240 266 288 297 253 163 214 258 244 263 304 346 333 266 327 339 288 250 234 262 267 277 290 302 311 347 357 33 54 327 190 20 82 52 39 68 50 128
354 352 327 293 307 318 288 275 288 254 287 289 351 219 13 38 15 343 322 310 299 314 312 310 358 13 272 328 339 350 337 30 115 96 99 161 201 85 28 66 91 37 13 145 158
Height
1531 1530 1530 1529 1527 1526 1524 1523 1521 1520 1518 1517 1516 1515 1513 1512 1512 1511 1509 1510 1512 1514 1515 1515 1515 1513 1512 1517 1519 1521 1538 1535 1517 1505 1499 1496 1498 1500 1502 1504 1506 1507 1511 1521 1529
1531 1530 1529 1528 1526 1525 1524 1522 1521 1519 1518 1517 1516 1514 1513 1511 1510 1507 1508 1509 1511 1512 1515 1518 1519 1515 1510 1513 1517 1521 1527 1520 1494 1487 1493 1493 1493 1496 1501 1504 1507 1510 1517 1523 1528
1531 1530 1528 1527 1525 1524 1523 1522 1520 1518 1517 1516 1515 1514 1512 1511 1509 1505 1506 1508 1509 1513 1516 1519 1517 1514 1521 1521 1519 1524 1518 1496 1490 1489 1489 1489 1489 1491 1498 1505 1506 1509 1517 1522 1527
1531 1529 1528 1526 1525 1523 1522 1520 1519 1518 1517 1516 1514 1514 1512 1511 1512 1506 1506 1508 1510 1513 1516 1518 1514 1517 1528 1517 1511 1520 1500 1497 1489 1487 1489 1495 1489 1492 1493 1502 1505 1510 1517 1523 1527
1530 1529 1527 1525 1524 1522 1521 1519 1518 1517 1516 1515 1514 1513 1512 1510 1508 1506 1507 1508 1510 1512 1516 1515 1515 1521 1525 1514 1516 1526 1505 1493 1486 1488 1491 1488 1492 1495 1496 1502 1507 1512 1517 1523 1527
1530 1528 1526 1524 1523 1521 1520 1518 1517 1516 1515 1515 1514 1513 1513 1512 1507 1507 1508 1509 1510 1510 1516 1518 1509 1516 1514 1512 1518 1494 1498 1486 1485 1485 1488 1489 1489 1493 1498 1501 1507 1513 1517 1521 1525
1529 1527 1525 1523 1522 1520 1518 1517 1516 1515 1514 1514 1513 1512 1511 1508 1507 1507 1507 1508 1509 1508 1511 1517 1518 1514 1511 1508 1503 1493 1490 1483 1484 1481 1487 1487 1496 1491 1496 1499 1504 1510 1516 1519 1522
1528 1526 1524 1522 1520 1518 1517 1515 1515 1514 1513 1513 1513 1512 1506 1504 1505 1505 1505 1506 1507 1508 1508 1510 1515 1515 1512 1507 1498 1491 1487 1504 1479 1479 1482 1482 1504 1488 1491 1494 1501 1506 1509 1514 1517
1527 1525 1523 1521 1519 1517 1515 1514 1513 1512 1511 1512 1512 1511 1504 1502 1503 1504 1504 1505 1506 1505 1506 1507 1509 1507 1503 1508 1512 1496 1512 1500 1485 1473 1475 1480 1492 1483 1487 1490 1495 1499 1503 1506 1510
1525 1523 1521 1519 1517 1515 1514 1512 1511 1510 1510 1510 1510 1513 1498 1496 1499 1501 1504 1505 1504 1503 1503 1504 1503 1502 1510 1510 1530 1508 1506 1493 1494 1476 1472 1478 1480 1475 1477 1483 1487 1491 1496 1500 1504
1524 1522 1520 1518 1516 1514 1513 1511 1513 1510 1508 1504 1499 1496 1492 1494 1495 1498 1502 1504 1504 1503 1502 1496 1504 1506 1497 1493 1493 1491 1487 1487 1476 1468 1474 1479 1476 1474 1472 1477 1481 1483 1487 1492 1497
1522 1520 1518 1517 1515 1513 1512 1511 1510 1512 1504 1498 1495 1495 1491 1494 1495 1497 1500 1503 1502 1505 1497 1499 1505 1484 1483 1485 1486 1486 1488 1488 1470 1468 1473 1476 1477 1466 1468 1470 1473 1476 1480 1484 1491
1520 1518 1516 1515 1514 1513 1512 1511 1511 1510 1506 1491 1488 1489 1487 1490 1491 1491 1495 1497 1499 1501 1497 1501 1489 1479 1479 1483 1487 1487 1490 1484 1482 1471 1468 1473 1481 1468 1466 1480 1476 1472 1470 1474 1480
1518 1516 1514 1513 1514 1512 1511 1512 1511 1511 1514 1487 1479 1481 1485 1488 1487 1486 1490 1494 1495 1500 1493 1492 1479 1478 1478 1480 1478 1497 1472 1473 1477 1488 1512 1475 1514 1475 1472 1471 1466 1459 1469 1468 1474
1517 1514 1513 1512 1510 1510 1511 1510 1511 1511 1542 1468 1473 1476 1479 1484 1478 1481 1485 1489 1492 1493 1492 1495 1484 1482 1483 1478 1472 1486 1471 1476 1477 1490 1494 1488 1507 1486 1471 1476 1466 1456 1454 1465 1465
1516 1512 1511 1510 1509 1510 1510 1510 1510 1521 1527 1470 1469 1473 1478 1479 1479 1482 1484 1485 1486 1488 1486 1485 1477 1477 1476 1470 1470 1471 1476 1477 1481 1493 1523 1487 1494 1495 1480 1470 1462 1459 1447 1451 1459
1513 1510 1509 1508 1507 1508 1509 1509 1521 1527 1463 1472 1474 1471 1477 1481 1481 1480 1482 1486 1496 1507 1507 1489 1482 1473 1471 1478 1470 1474 1493 1532 1536 1532 1527 1480 1488 1480 1457 1449 1449 1448 1448 1452 1458
1509 1506 1504 1504 1506 1508 1509 1512 1528 1485 1472 1453 1458 1466 1478 1475 1477 1477 1483 1490 1481 1488 1500 1508 1511 1478 1468 1473 1482 1482 1491 1528 1542 1540 1517 1480 1500 1478 1450 1444 1443 1445 1447 1452 1456
1505 1502 1500 1500 1502 1507 1510 1521 1501 1478 1464 1463 1457 1467 1473 1465 1467 1473 1479 1483 1476 1476 1498 1502 1496 1465 1461 1460 1461 1477 1493 1475 1501 1495 1515 1496 1476 1451 1447 1443 1444 1449 1448 1451 1453
1501 1499 1495 1498 1500 1505 1508 1507 1485 1473 1471 1464 1477 1467 1477 1467 1467 1471 1475 1467 1467 1463 1464 1477 1498 1469 1458 1454 1455 1462 1460 1496 1505 1532 1538 1506 1497 1488 1457 1448 1445 1443 1448 1450 1452
1500 1498 1492 1497 1499 1504 1509 1497 1482 1475 1472 1471 1475 1477 1474 1473 1465 1463 1465 1457 1455 1454 1455 1461 1476 1479 1460 1468 1474 1471 1478 1473 1485 1501 1527 1528 1509 1453 1452 1446 1441 1439 1444 1448 1452
1500 1499 1495 1496 1501 1498 1498 1489 1480 1476 1472 1469 1468 1472 1475 1470 1472 1472 1469 1459 1453 1452 1459 1456 1467 1488 1474 1454 1450 1455 1464 1469 1503 1506 1495 1497 1496 1465 1450 1440 1442 1443 1443 1449 1452
1501 1497 1494 1494 1499 1494 1487 1481 1479 1475 1470 1467 1467 1467 1467 1473 1483 1469 1463 1455 1456 1455 1462 1460 1478 1502 1491 1467 1453 1459 1456 1457 1463 1467 1488 1506 1504 1463 1455 1454 1447 1444 1444 1449 1452
1503 1495 1490 1491 1486 1485 1484 1480 1474 1468 1466 1465 1468 1467 1471 1473 1468 1472 1469 1458 1458 1460 1460 1458 1470 1486 1508 1490 1472 1475 1462 1454 1462 1488 1487 1496 1487 1476 1468 1466 1463 1456 1457 1453 1459
1502 1494 1494 1487 1483 1482 1480 1477 1474 1469 1460 1462 1467 1471 1475 1483 1478 1477 1469 1466 1459 1458 1459 1461 1481 1474 1471 1465 1459 1464 1462 1458 1462 1463 1481 1477 1479 1479 1471 1475 1475 1473 1468 1465 1467
1505 1503 1496 1491 1481 1475 1472 1475 1472 1464 1463 1462 1466 1467 1469 1476 1475 1480 1472 1470 1468 1461 1462 1458 1478 1469 1475 1462 1459 1462 1457 1454 1453 1455 1470 1463 1469 1470 1468 1467 1470 1474 1470 1471 1477
1506 1505 1503 1489 1483 1481 1474 1470 1465 1463 1460 1460 1461 1462 1465 1469 1469 1470 1468 1466 1465 1466 1468 1467 1471 1479 1485 1467 1468 1481 1464 1462 1470 1466 1467 1478 1472 1471 1470 1463 1467 1472 1470 1467 1467